TIANWANG 1B (TW-1B)
1 40927U 15051C   19335.58485295  .00010991  00000-0  15063-3 0  9999
2 40927  97.1174  20.7286 0008917 120.3714  36.4191 15.57496108235809
TIANWANG 1A (TW-1A)
1 40928U 15051D   19335.52859051  .00002182  00000-0  53752-4 0  9990
2 40928  97.1295   3.1010 0010684 181.5593 336.9863 15.41602792234716
LAPAN A2
1 40931U 15052B   19324.69785557 -.00020420  00000-0 -29507-2 0  9996
2 40931   5.9963  31.2247 0013118 192.9224 166.9491 14.76583141224210
LQSAT
1 40958U 15057A   19335.43841330  .00000021  00000-0  10932-4 0  9993
2 40958  97.8809  39.9951 0019472  71.1089 289.2228 14.73098470223209
CHUBUSAT 2
1 41338U 16012B   19335.23484853  .00000252  00000-0  12814-4 0  9996
2 41338  31.0018 172.6789 0013946 302.5598  57.3690 15.00215024207794
CHUBUSAT 3
1 41339U 16012C   19335.25173490  .00000300  00000-0  16492-4 0  9991
2 41339  31.0112 170.4527 0013982 310.8752  49.0672 15.00386093207793
OUFTI-1
1 41458U 16025C   19335.49587895  .00002751  00000-0  14132-3 0  9991
2 41458  98.0997  70.7861 0165809 159.1405 201.6693 15.06259562197521
E-STAR-2
1 41459U 16025D   19335.22092115  .00002494  00000-0  12942-3 0  9990
2 41459  98.0995  70.0566 0167190 161.7739 198.9617 15.05867846197454
AAUSAT 4
1 41460U 16025E   19335.51350889  .00002019  00000-0  10308-3 0  9996
2 41460  98.0960  72.0503 0156956 151.6495 209.3368 15.07931127197654
NUSAT 1
1 41557U 16033B   19335.46776198  .00001017  00000-0  40360-4 0  9990
2 41557  97.4131  61.9887 0015277  74.4338 285.8586 15.27570393195390
BEESAT 4
1 41619U 16040W   19334.65866213  .00001167  00000-0  51744-4 0  9999
2 41619  97.3482  33.6576 0011926 155.9845 204.1951 15.23504084178978
PRATHAM
1 41783U 16059A   19335.45274925  .00000031  00000-0  15263-4 0  9998
2 41783  98.0468  31.1893 0032765 220.9136 138.9607 14.63023658169784
ALSAT 1N
1 41789U 16059G   19335.43642388  .00000085  00000-0  25147-4 0  9995
2 41789  98.0494  33.5360 0027800 209.1708 150.7946 14.64279997169904
NAYIF 1
1 42017U 17008BX  19335.16990254  .00001248  00000-0  51426-4 0  9994
2 42017  97.3857  40.4265 0004954 316.9597  43.1253 15.25941067155153
MAX VALIER SAT
1 42778U 17036P   19335.12676878  .00000762  00000-0  36035-4 0  9997
2 42778  97.3342  28.9771 0012408  11.3265 348.8248 15.22278247135405
